KL1YC Weather Reports


time (UTC)temp
C
wind
direction
speed
KPH
gust
KPH
rain 1hr
cm
rain 24hr
cm
rain mn
cm
humidity
%
barometer
mb
20260507074525 3 197 0.0 0.0 0.00 0.00 0.00 64 1011.8
20260507073026 3 197 0.0 0.0 0.00 0.00 0.00 56 1011.7
20260507071523 4 197 0.0 0.0 0.00 0.00 0.00 54 1011.6
20260507070025 5 198 0.0 0.0 0.00 0.00 0.00 50 1011.4
20260507064522 5 198 0.0 0.0 0.00 0.00 0.00 49 1011.4
20260507063022 5 197 0.0 0.0 0.00 0.00 0.00 48 1011.3
20260507061526 5 197 0.0 0.0 0.00 0.00 0.00 48 1011.3
20260507060032 5 197 0.0 0.0 0.00 0.00 0.00 47 1011.2
20260507054533 5 154 0.0 0.0 0.00 0.00 0.00 48 1011.1
20260507053021 5 154 0.0 0.0 0.00 0.00 0.00 51 1010.9
20260507051521 5 154 0.0 0.0 0.00 0.00 0.00 52 1010.9
20260507050110 5 154 0.0 0.0 0.00 0.00 0.00 52 1010.9
20260507044559 5 154 0.0 0.0 0.00 0.00 0.00 51 1010.9
20260507043157 6 152 0.0 0.0 0.00 0.00 0.00 46 1010.8
20260507041502 6 250 0.0 0.0 0.00 0.00 0.00 34 1010.8
20260507040001 6 250 0.0 0.0 0.00 0.00 0.00 35 1010.8
20260507034501 6 250 0.0 0.0 0.00 0.00 0.00 35 1010.8
20260507033103 6 252 0.0 0.0 0.00 0.00 0.00 35 1010.8
20260507031559 6 305 3.2 0.0 0.00 0.00 0.00 34 1010.8
20260507030059 6 273 3.2 0.0 0.00 0.00 0.00 34 1010.8
20260507024559 6 233 8.0 0.0 0.00 0.00 0.00 33 1010.7
20260507023059 6 252 3.2 0.0 0.00 0.00 0.00 31 1010.5
20260507021611 6 260 9.7 0.0 0.00 0.00 0.00 31 1010.5
20260507020058 7 215 0.0 0.0 0.00 0.00 0.00 35 1010.5
20260507014559 6 254 3.2 0.0 0.00 0.00 0.00 35 1010.6
20260507013057 6 252 4.8 0.0 0.00 0.00 0.00 33 1010.7
20260507011601 6 270 3.2 0.0 0.00 0.00 0.00 35 1010.8
20260507010055 6 221 1.6 0.0 0.00 0.00 0.00 35 1010.8
20260507004555 6 239 6.4 0.0 0.00 0.00 0.00 33 1010.8
20260507003054 6 229 3.2 0.0 0.00 0.00 0.00 34 1010.8
20260507001600 5 260 6.4 0.0 0.00 0.00 0.00 35 1010.8
20260507000054 6 236 8.0 0.0 0.00 0.00 0.00 35 1010.7
20260506234614 6 292 3.2 0.0 0.00 0.00 0.00 34 1010.7
20260506233053 6 257 6.4 0.0 0.00 0.00 0.00 34 1010.6
20260506231555 6 225 9.7 0.0 0.00 0.00 0.00 33 1010.5
20260506230052 6 303 6.4 0.0 0.00 0.00 0.00 37 1010.7
20260506224551 6 239 9.7 0.0 0.00 0.00 0.00 35 1010.5
20260506223058 5 331 8.0 0.0 0.00 0.00 0.00 37 1010.6
20260506221554 5 236 8.0 0.0 0.00 0.00 0.00 36 1010.5
20260506220050 5 205 8.0 0.0 0.00 0.00 0.00 36 1010.4
20260506214549 5 253 8.0 0.0 0.00 0.00 0.00 36 1010.3
20260506213047 5 284 6.4 0.0 0.00 0.00 0.00 41 1010.3
20260506211546 5 277 9.7 0.0 0.00 0.00 0.00 41 1010.2
20260506210044 5 217 8.0 0.0 0.00 0.00 0.00 46 1010.3
20260506204553 5 207 6.4 0.0 0.00 0.00 0.00 45 1010.2
20260506203041 4 241 8.0 0.0 0.00 0.00 0.00 46 1010.1
20260506201546 4 211 9.7 0.0 0.00 0.00 0.00 50 1010.1
20260506194549 4 254 4.8 0.0 0.00 0.00 0.00 51 1009.8
20260506193041 3 242 9.7 0.0 0.00 0.00 0.00 53 1009.8
20260506191537 3 277 9.7 0.0 0.00 0.00 0.00 52 1009.7
20260506190038 3 250 11.3 0.0 0.00 0.00 0.00 59 1009.7
20260506184534 3 222 9.7 0.0 0.00 0.00 0.00 60 1009.7
20260506183033 3 242 6.4 0.0 0.00 0.00 0.00 66 1009.7
20260506181535 2 236 9.7 0.0 0.00 0.00 0.00 66 1009.7
20260506180030 2 207 9.7 0.0 0.00 0.00 0.00 71 1009.5
20260506174529 2 234 6.4 0.0 0.00 0.00 0.00 74 1009.3
20260506173028 2 248 6.4 0.0 0.00 0.00 0.00 79 1009.3
20260506171537 1 229 8.0 0.0 0.00 0.00 0.00 80 1009.2
20260506170024 1 248 4.8 0.0 0.00 0.00 0.00 83 1009.2
20260506164524 1 231 3.2 0.0 0.00 0.00 0.00 84 1009.2
20260506163022 1 247 4.8 0.0 0.00 0.00 0.00 85 1009.1
20260506161523 1 261 1.6 0.0 0.00 0.00 0.00 86 1009.1
20260506160032 1 263 1.6 0.0 0.00 0.00 0.00 87 1008.9
20260506154520 1 286 0.0 0.0 0.00 0.00 0.00 87 1008.7
20260506153018 1 237 4.8 0.0 0.00 0.00 0.00 87 1008.7
20260506151525 0 250 1.6 0.0 0.00 0.00 0.00 88 1008.6
20260506150025 0 231 1.6 0.0 0.00 0.00 0.00 89 1008.5
20260506144513 0 234 3.2 0.0 0.00 0.00 0.00 90 1008.3
20260506143033 0 246 3.2 0.0 0.00 0.00 0.00 90 1008.2
20260506141512 0 212 3.2 0.0 0.00 0.00 0.00 90 1008.1
20260506140013 0 250 6.4 0.0 0.00 0.00 0.00 90 1007.9
20260506134508 1 257 3.2 0.0 0.00 0.00 0.00 90 1007.7
20260506133006 1 271 1.6 0.0 0.00 0.00 0.00 90 1007.6
20260506131508 1 243 1.6 0.0 0.00 0.00 0.00 90 1007.5
20260506130005 1 228 3.2 0.0 0.00 0.00 0.00 89 1007.2
20260506124502 1 213 1.6 0.0 0.00 0.00 0.00 89 1007.1
20260506123100 1 228 4.8 0.0 0.00 0.00 0.00 89 1007.0
20260506121600 1 258 3.2 0.0 0.00 0.00 0.00 89 1006.8
20260506120057 1 225 1.6 0.0 0.00 0.00 0.00 90 1006.6
20260506114553 1 232 1.6 0.0 0.00 0.00 0.00 90 1006.5
20260506113058 1 245 0.0 0.0 0.00 0.00 0.00 90 1006.4
20260506111554 1 236 1.6 0.0 0.00 0.00 0.00 90 1006.2
20260506110059 2 236 0.0 0.0 0.00 0.00 0.00 90 1006.1
20260506104558 2 238 1.6 0.0 0.00 0.00 0.00 90 1005.9
20260506103048 2 244 3.2 0.0 0.00 0.00 0.00 90 1005.7
20260506101553 2 235 1.6 0.0 0.00 0.00 0.00 91 1005.5
20260506100042 2 228 0.0 0.0 0.00 0.00 0.00 91 1005.4
20260506094550 2 228 0.0 0.0 0.00 0.00 0.00 91 1005.1
20260506093038 3 221 0.0 0.0 0.00 0.00 0.00 91 1005.0
20260506091537 3 221 0.0 0.0 0.00 0.00 0.00 91 1004.8
20260506090037 3 221 0.0 0.0 0.00 0.00 0.00 91 1004.5
20260506084535 3 215 0.0 0.0 0.00 0.00 0.36 92 1004.3
20260506083034 3 209 0.0 0.0 0.00 0.00 0.36 92 1004.0
20260506081539 4 209 0.0 0.0 0.00 0.00 0.36 92 1003.9